EST,Max TemperatureF,Mean TemperatureF,Min TemperatureF,Max Dew PointF,MeanDew PointF,Min DewpointF,Max Humidity, Mean Humidity, Min Humidity, Max Sea Level PressureIn, Mean Sea Level PressureIn, Min Sea Level PressureIn, Max VisibilityMiles, Mean VisibilityMiles, Min VisibilityMiles, Max Wind SpeedMPH, Mean Wind SpeedMPH, Max Gust SpeedMPH,PrecipitationIn, CloudCover, Events, WindDirDegrees
2012-12-1,51,44,36,32,28,23,63,54,46,30.35,30.29,30.24,10,9,7,9,7,,0.00,6,,150
2012-12-2,54,48,43,48,42,32,83,75,61,30.23,30.07,29.99,10,4,2,10,7,20,0.58,8,Rain,192
2012-12-3,59,52,46,53,47,41,83,79,64,30.21,30.16,30.11,10,4,0,9,4,,0.00,7,,237
2012-12-4,66,56,46,53,47,39,81,72,50,30.15,30.02,29.90,10,8,2,24,9,32,0.34,6,Rain,258
2012-12-5,45,36,27,37,24,15,74,64,54,30.34,30.17,30.02,10,10,6,21,11,28,0.00,7,Snow,307
2012-12-6,44,32,21,19,16,11,75,53,26,30.35,30.23,30.07,10,10,10,12,5,,0.00,2,,122
2012-12-7,43,39,35,38,33,20,86,78,54,30.05,29.96,29.89,10,4,0,13,6,,0.21,8,Fog-Rain,151
2012-12-8,52,46,39,44,39,31,86,78,71,30.09,29.88,29.79,10,7,0,16,6,22,0.13,8,Rain,239
2012-12-9,45,38,33,39,30,26,80,71,60,30.19,30.06,29.81,10,9,4,17,7,24,0.15,7,Rain,104
2012-12-10,55,46,37,50,40,30,83,79,75,29.76,29.61,29.53,10,6,2,14,9,18,0.77,8,Rain-Snow,269
2012-12-11,37,34,30,30,26,21,79,73,57,30.18,29.88,29.71,10,6,1,13,7,20,0.02,8,Snow,289
2012-12-12,37,30,23,22,19,16,75,62,43,30.44,30.33,30.17,10,10,9,10,5,,0.00,3,,238
2012-12-13,41,30,19,23,17,11,75,59,38,30.46,30.38,30.25,10,10,4,10,2,,0.00,0,,171
2012-12-14,45,36,28,26,21,17,75,57,47,30.26,30.23,30.20,10,10,9,9,5,,0.00,0,,249
2012-12-15,44,34,24,28,24,18,78,63,45,30.25,30.15,29.97,10,9,5,15,4,20,0.00,3,Rain,137
2012-12-16,45,43,41,39,35,28,82,74,58,29.94,29.80,29.72,10,6,2,14,10,23,0.37,8,Rain,141
2012-12-17,53,48,44,45,42,38,87,81,71,29.75,29.69,29.51,10,4,1,12,5,,0.48,8,Rain,153
2012-12-18,44,40,34,39,32,25,82,77,67,29.78,29.58,29.45,10,6,1,16,7,24,0.30,8,Rain-Snow,280
2012-12-19,37,35,33,31,29,27,82,78,73,30.16,29.94,29.72,8,6,1,9,4,,0.01,8,Snow,277
2012-12-20,37,34,30,31,29,24,82,77,65,30.15,29.78,29.43,10,4,0,22,7,39,0.62,5,Rain-Snow,146
2012-12-21,37,34,30,31,26,23,82,75,69,29.42,29.27,29.18,10,3,0,23,10,34,0.15,8,Snow,253
2012-12-22,30,29,28,22,20,18,75,69,64,29.96,29.70,29.38,10,4,0,30,20,44,0.00,8,Snow,293
2012-12-23,33,27,21,22,18,15,75,66,48,29.98,29.90,29.84,10,10,8,16,8,23,0.00,5,,259
2012-12-24,34,29,24,25,22,17,80,72,56,30.02,29.86,29.76,10,6,0,13,6,,0.08,6,Snow,136
2012-12-25,33,30,26,28,24,16,82,74,59,30.26,30.04,29.80,10,7,1,12,5,,0.00,8,,344
2012-12-26,30,27,24,23,19,16,78,74,66,30.25,29.83,29.58,10,4,0,17,11,26,0.32,8,Snow,86
2012-12-27,28,26,24,22,19,16,81,76,69,30.02,29.78,29.57,10,5,1,20,11,28,0.03,8,Snow,314
2012-12-28,28,24,21,21,19,16,81,76,69,30.11,30.05,29.93,10,8,5,17,9,,0.00,8,,298
2012-12-29,28,26,24,22,20,17,81,75,69,29.95,29.68,29.54,10,3,0,18,7,26,0.34,8,Snow,66
2012-12-30,28,26,23,19,18,15,78,70,64,30.25,30.06,29.77,10,4,0,21,13,33,0.00,8,Snow,293
2012-12-31,33,28,23,24,20,14,76,69,54,30.21,29.97,29.84,10,6,1,14,9,23,0.02,6,Snow,248